Palo Verde, AZ

2:29 AM MST on August 29, 2016 (GMT -0700)
Buckeye Municipal

Weather History for KBXK - January, 2014

Change the Weather History Date:

Thursday, January 2, 2014

  Actual Average (KGYR) Record (KGYR)
Temperature  
Mean Temperature 54 °F -  
Max Temperature 73 °F 65 °F 84 °F (2008)
Min Temperature 35 °F 40 °F 28 °F (2011)
Degree Days  
Heating Degree Days 11    
Growing Degree Days 4 (Base 50)    
Moisture  
Dew Point 30 °F    
Average Humidity 49    
Maximum Humidity 87    
Minimum Humidity 14    
Precipitation  
Precipitation 0.00 in - - ()
Sea Level Pressure  
Sea Level Pressure 30.10 in    
Wind  
Wind Speed 4 mph (North)    
Max Wind Speed 15 mph    
Max Gust Speed 18 mph    
Visibility 10 miles    
Events      
Averages and records for this station are not official NWS values.
T = Trace of Precipitation, MM = Missing Value Source: NWS Daily Summary

Daily Weather History Graph

Daily Weather History Graph

Search for Another Location

Airport or City:

Trip Planner

Search our weather history database for the weather conditions in past years. The results will help you decide how hot, cold, wet, or windy it might be!

Date:

Astronomy

Jan. 02, 2014 Rise Set
Actual Time 7:35 AM MST 5:34 PM MST
Civil Twilight 7:07 AM MST 6:02 PM MST
Nautical Twilight 6:36 AM MST 6:33 PM MST
Astronomical Twilight 6:06 AM MST 7:03 PM MST
Moon 8:25 AM MST (1/2) 7:29 PM MST (1/2)
Length of Visible Light 10h 54m
Length of Day
9h 59m
Waxing Crescent, 3% of the Moon is Illuminated
Jan 2
Waxing Crescent
Jan 7
First Quarter
Jan 15
Full
Jan 23
Last Quarter
Jan 30
New

Hourly Weather History & Observations

Time (MST) Temp. Windchill Dew Point Humidity Pressure Visibility Wind Dir Wind Speed Gust Speed Precip Events Conditions
12:15 AM 42.8 °F 40.1 °F 32.0 °F 66% 30.13 in 10.0 mi North 4.6 mph - N/A   Clear
12:35 AM 42.8 °F - 32.0 °F 66% 30.13 in 10.0 mi Calm Calm - N/A   Clear
12:55 AM 41.0 °F - 32.0 °F 70% 30.14 in 10.0 mi Calm Calm - N/A   Clear
1:15 AM 44.6 °F 43.1 °F 32.0 °F 61% 30.13 in 10.0 mi SE 3.5 mph - N/A   Clear
1:35 AM 41.0 °F - 32.0 °F 70% 30.13 in 10.0 mi Calm Calm - N/A   Clear
1:55 AM 41.0 °F 38.0 °F 33.8 °F 76% 30.14 in 10.0 mi NNE 4.6 mph - N/A   Clear
2:15 AM 41.0 °F - 33.8 °F 76% 30.14 in 10.0 mi Calm Calm - N/A   Clear
2:35 AM 39.2 °F - 33.8 °F 81% 30.14 in 10.0 mi Calm Calm - N/A   Clear
2:55 AM 39.2 °F - 33.8 °F 81% 30.14 in 10.0 mi Calm Calm - N/A   Clear
3:15 AM 39.2 °F 37.0 °F 33.8 °F 81% 30.14 in 10.0 mi North 3.5 mph - N/A   Clear
3:35 AM 37.4 °F 32.8 °F 32.0 °F 81% 30.14 in 10.0 mi North 5.8 mph - N/A   Clear
3:55 AM 39.2 °F 35.0 °F 32.0 °F 75% 30.14 in 10.0 mi North 5.8 mph - N/A   Clear
4:15 AM 39.2 °F 35.9 °F 32.0 °F 75% 30.14 in 10.0 mi North 4.6 mph - N/A   Clear
4:35 AM 39.2 °F - 32.0 °F 75% 30.14 in 10.0 mi Calm Calm - N/A   Clear
4:55 AM 37.4 °F - 32.0 °F 81% 30.14 in 10.0 mi Calm Calm - N/A   Clear
5:15 AM 39.2 °F - 32.0 °F 75% 30.14 in 10.0 mi Calm Calm - N/A   Clear
5:35 AM 39.2 °F - 32.0 °F 75% 30.14 in 10.0 mi Calm Calm - N/A   Clear
5:55 AM 41.0 °F 37.1 °F 30.2 °F 65% 30.14 in 10.0 mi NNE 5.8 mph - N/A   Clear
6:15 AM 41.0 °F 39.0 °F 30.2 °F 65% 30.15 in 10.0 mi North 3.5 mph - N/A   Clear
6:35 AM 39.2 °F - 30.2 °F 70% 30.15 in 10.0 mi Calm Calm - N/A   Clear
6:55 AM 35.6 °F 32.8 °F 32.0 °F 87% 30.15 in 10.0 mi WNW 3.5 mph - N/A   Clear
7:15 AM 35.6 °F 29.9 °F 32.0 °F 87% 30.15 in 10.0 mi NW 6.9 mph - N/A   Clear
7:35 AM 37.4 °F 34.9 °F 32.0 °F 81% 30.15 in 9.0 mi North 3.5 mph - N/A   Clear
7:55 AM 37.4 °F - 32.0 °F 81% 30.16 in 5.0 mi Calm Calm - N/A   Clear
8:15 AM 37.4 °F - 32.0 °F 81% 30.16 in 9.0 mi Calm Calm - N/A   Clear
8:35 AM 41.0 °F - 32.0 °F 70% 30.16 in 10.0 mi Calm Calm - N/A   Clear
8:55 AM 44.6 °F - 32.0 °F 61% 30.17 in 6.0 mi Calm Calm - N/A   Clear
9:15 AM 46.4 °F - 33.8 °F 62% 30.17 in 10.0 mi Calm Calm - N/A   Clear
9:35 AM 48.2 °F - 35.6 °F 62% 30.17 in 10.0 mi WSW 3.5 mph - N/A   Clear
9:55 AM 51.8 °F - 32.0 °F 47% 30.17 in 10.0 mi West 5.8 mph - N/A   Clear
10:15 AM 55.4 °F - 28.4 °F 36% 30.18 in 10.0 mi West 4.6 mph - N/A   Clear
10:35 AM 57.2 °F - 28.4 °F 33% 30.17 in 10.0 mi West 3.5 mph - N/A   Clear
10:55 AM 59.0 °F - 28.4 °F 31% 30.17 in 10.0 mi Calm Calm - N/A   Clear
11:15 AM 60.8 °F - 28.4 °F 29% 30.16 in 10.0 mi Calm Calm - N/A   Clear
11:35 AM 62.6 °F - 28.4 °F 27% 30.15 in 10.0 mi West 3.5 mph - N/A   Clear
11:55 AM 62.6 °F - 32.0 °F 32% 30.14 in 10.0 mi SW 3.5 mph - N/A   Clear
12:15 PM 64.4 °F - 30.2 °F 28% 30.12 in 10.0 mi Calm Calm - N/A   Clear
12:35 PM 66.2 °F - 28.4 °F 24% 30.11 in 10.0 mi Calm Calm - N/A   Clear
12:55 PM 69.8 °F - 24.8 °F 18% 30.10 in 10.0 mi East 11.5 mph - N/A   Clear
1:15 PM 71.6 °F - 21.2 °F 15% 30.08 in 10.0 mi East 15.0 mph - N/A   Clear
1:35 PM 71.6 °F - 21.2 °F 15% 30.07 in 10.0 mi East 12.7 mph 18.4 mph N/A   Clear
1:55 PM 73.4 °F - 21.2 °F 14% 30.06 in 10.0 mi East 13.8 mph - N/A   Clear
2:15 PM 71.6 °F - 21.2 °F 15% 30.06 in 10.0 mi East 12.7 mph - N/A   Clear
2:35 PM 71.6 °F - 23.0 °F 16% 30.05 in 10.0 mi East 12.7 mph 18.4 mph N/A   Clear
2:55 PM 73.4 °F - 23.0 °F 15% 30.05 in 10.0 mi East 12.7 mph 18.4 mph N/A   Clear
3:15 PM 71.6 °F - 24.8 °F 17% 30.04 in 10.0 mi East 11.5 mph - N/A   Clear
3:35 PM 71.6 °F - 26.6 °F 19% 30.04 in 10.0 mi East 12.7 mph - N/A   Clear
3:55 PM 71.6 °F - 26.6 °F 19% 30.04 in 10.0 mi East 6.9 mph - N/A   Clear
4:15 PM 71.6 °F - 28.4 °F 20% 30.05 in 10.0 mi East 3.5 mph - N/A   Clear
4:35 PM 71.6 °F - 30.2 °F 22% 30.05 in 10.0 mi ESE 4.6 mph - N/A   Clear
4:55 PM 71.6 °F - 32.0 °F 23% 30.04 in 10.0 mi ESE 4.6 mph - N/A   Clear
5:15 PM 68.0 °F - 32.0 °F 26% 30.04 in 10.0 mi East 4.6 mph - N/A   Clear
5:35 PM 66.2 °F - 33.8 °F 30% 30.04 in 10.0 mi Calm Calm - N/A   Clear
5:55 PM 62.6 °F - 35.6 °F 37% 30.04 in 10.0 mi Calm Calm - N/A   Clear
6:15 PM 62.6 °F - 32.0 °F 32% 30.04 in 10.0 mi Calm Calm - N/A   Clear
6:35 PM 62.6 °F - 32.0 °F 32% 30.04 in 10.0 mi Calm Calm - N/A   Clear
6:55 PM 57.2 °F - 32.0 °F 38% 30.04 in 6.0 mi NNW 6.9 mph - N/A   Scattered Clouds
7:15 PM 57.2 °F - 30.2 °F 36% 30.04 in 10.0 mi NNW 9.2 mph - N/A   Scattered Clouds
7:35 PM 57.2 °F - 28.4 °F 33% 30.04 in 10.0 mi NNW 9.2 mph - N/A   Clear
7:55 PM 55.4 °F - 28.4 °F 36% 30.04 in 10.0 mi North 11.5 mph - N/A   Partly Cloudy
8:15 PM 55.4 °F - 28.4 °F 36% 30.04 in 10.0 mi North 8.1 mph - N/A   Mostly Cloudy
8:35 PM 55.4 °F - 28.4 °F 36% 30.04 in 10.0 mi NNW 9.2 mph - N/A   Partly Cloudy
8:55 PM 53.6 °F - 28.4 °F 38% 30.04 in 10.0 mi NNW 10.4 mph - N/A   Scattered Clouds
9:15 PM 50.0 °F - 28.4 °F 43% 30.04 in 10.0 mi NNW 9.2 mph - N/A   Partly Cloudy
9:35 PM 50.0 °F - 30.2 °F 47% 30.04 in 10.0 mi NNW 9.2 mph - N/A   Clear
9:55 PM 50.0 °F - 30.2 °F 47% 30.04 in 10.0 mi North 8.1 mph - N/A   Clear
10:15 PM 48.2 °F - 30.2 °F 50% 30.04 in 10.0 mi NNW 8.1 mph - N/A   Clear
10:35 PM 48.2 °F - 32.0 °F 54% 30.05 in 10.0 mi NNW 8.1 mph - N/A   Partly Cloudy
10:55 PM 48.2 °F - 32.0 °F 54% 30.05 in 10.0 mi North 6.9 mph - N/A   Clear
11:15 PM 48.2 °F - 32.0 °F 54% 30.05 in 10.0 mi North 8.1 mph - N/A   Clear
11:35 PM 46.4 °F 41.9 °F 32.0 °F 57% 30.04 in 10.0 mi North 9.2 mph - N/A   Clear
11:55 PM 46.4 °F 42.4 °F 32.0 °F 57% 30.04 in 10.0 mi NNW 8.1 mph - N/A   Clear